Air Resources Laboratory banner image
Air Resources Laboratory web site National Oceanic and Atmospheric Administration (NOAA)

ny roundup


Office: ALY

ASUS41 KALY 201510
RWRALY

NEW YORK STATE HOURLY WEATHER ROUNDUP
NATIONAL WEATHER SERVICE ALBANY NY
1000 AM EST TUE NOV 20 2018

NOTE: "FAIR" INDICATES FEW OR NO CLOUDS BELOW 12,000 FEET WITH NO
SIGNIFICANT WEATHER AND/OR NO OBSTRUCTIONS TO VISIBILITY.

NYZ032-033-038>043-046>054-057>066-NYZ062>081-082-084-201600-
EAST


CITY           SKY/WX    TMP DP  RH WIND       PRES   REMARKS
ALBANY         LGT SNOW  35  31  85 NW5       29.92S FOG     WCI  31
GLENS FALLS    LGT SNOW  32  32 100 CALM      29.90F FOG
POUGHKEEPSIE   CLOUDY    36  33  89 N3        29.89S
NEWBURGH       CLOUDY    36  36 100 CALM      29.89S FOG
MONTGOMERY     CLOUDY    36  34  92 N5        29.89R WCI  32
WHITE PLAINS   CLOUDY    39  37  92 N7        29.85S FOG     WCI  34
ISLIP          CLOUDY    43  42  97 N9        29.85R FOG
NEW YORK CITY  CLOUDY    42  38  85 NW9       29.87S FOG
CENTRAL PARK   CLOUDY    41  38  89 MISG      29.90S FOG
$$

NYZ005>009-017-018-044>046-055-056-201600-
CENTRAL


CITY           SKY/WX    TMP DP  RH WIND       PRES   REMARKS
FULTON         LGT SNOW  34  28  79 SW3       29.92R
SYRACUSE       CLOUDY    32  29  88 CALM      29.92S
ROME           CLOUDY    35  31  85 CALM      29.92S
ELMIRA         LGT RAIN  36  33  89 W5        29.92R WCI  32
BINGHAMTON     LGT SNOW  32  31  96 W6        29.86S FOG     WCI  26
MONTICELLO     FOG       36  34  93 SW5       29.87R VSB 1/4 WCI  32
$$

NYZ026>034-041>043-087-201600-
NORTH


CITY           SKY/WX    TMP DP  RH WIND       PRES   REMARKS
WATERTOWN      LGT SNOW  30  29  96 N7        29.93R VSB 3/4 WCI  23
FORT DRUM      NOT AVBL
MASSENA        LGT SNOW  24  22  91 NE10      29.96F FOG     WCI  14
SARANAC LAKE   LGT SNOW  26  26 100 CALM      29.84S FOG
PLATTSBURGH    LGT SNOW  25  22  88 N8        29.95R FOG     WCI  16
$$

NYZ001>004-010>016-019>021-085-201600-
WEST


CITY           SKY/WX    TMP DP  RH WIND       PRES   REMARKS
NIAGARA FALLS  LGT SNOW  31  29  92 NW12      29.97R VSB 1   WCI  22
BUFFALO        LGT SNOW  33  31  92 NW8       29.96R VSB 3/4 WCI  26
DUNKIRK        LGT SNOW  35  33  92 W8        29.97R FOG     WCI  29
JAMESTOWN      LGT SNOW  34  30  86 W8        29.94R FOG     WCI  27
WELLSVILLE     LGT SNOW  31  31 100 W7        29.90R FOG     WCI  24
ROCHESTER      LGT SNOW  34  33  96 W7        29.94S FOG     WCI  28
PENN YAN       LGT SNOW  34  30  85 W5        29.93R FOG     WCI  30
$$

             KEY
       WCI = WIND CHILL INDEX
       VSB = VISIBILITY
       HX  = HEAT INDEX
$$




Office: OKX ASUS41 KOKX 201505 RWROKX Regional Weather Roundup National Weather Service New York NY 1000 AM EST TUE NOV 20 2018 Note: "FAIR" indicates few or no clouds below 12,000 feet with no significant weather and/or obstructions to visibility. NYZ071-072-176-178-NJZ106-104-201600- New York City Metro Area CITY SKY/WX TMP DP RH WIND PRES REMARKS Central Park CLOUDY 41 38 89 MISG 29.90S FOG Bronx Lehman C N/A 39 37 93 N6 N/A WCI 35 LaGuardia Arpt CLOUDY 42 38 85 NW9 29.87S FOG Queens College N/A 41 39 93 N7 N/A Kennedy Intl CLOUDY 44 42 93 NW9 29.88S Breezy Point N/A 43 N/A N/A NW8G15 N/A Brooklyn Coll N/A 45 39 81 W9 N/A Staten Island N/A 43 39 87 N5 N/A Newark/Liberty CLOUDY 43 38 82 NW8 29.88S Teterboro CLOUDY 42 38 85 N7 29.88S FOG $$ NYZ177-179-078>081-201600- Long Island New York CITY SKY/WX TMP DP RH WIND PRES REMARKS Jones Beach N/A 43 N/A N/A N10 N/A Wantagh N/A 43 41 93 N8 N/A Hempstead N/A 43 39 87 N2 29.89S Matinecock Pt N/A 43 N/A N/A N9 N/A Farmingdale CLOUDY 43 41 93 N8 29.86S FOG MacArthur/ISP CLOUDY 43 42 97 N9 29.85R FOG Stony Brook N/A 41 39 93 N6 N/A Shirley LGT RAIN 44 41 89 N9 29.85S FOG Mt Sinai Harb N/A N/A N/A N/A N9 N/A Westhampton CLOUDY 45 42 89 N10 29.85S East Hampton LGT RAIN 44 43 97 N9 29.83S Southold N/A 43 41 93 NE7 N/A Montauk N/A 46 46 100 N8 29.85R $$ NYZ052-065-067-201600- Hudson Valley CITY SKY/WX TMP DP RH WIND PRES REMARKS White Plains CLOUDY 39 37 92 N9 29.85S FOG WCI 33 Larchmont Harb N/A 39 N/A N/A NW6 N/A WCI 35 Croton On Huds N/A 39 N/A N/A CALM N/A Somers N/A 37 36 93 N3 N/A Brewster N/A 36 36 100 N6 N/A WCI 31 Newburgh CLOUDY 36 36 100 CALM 29.89S FOG Montgomery CLOUDY 36 34 92 N5 29.89R WCI 32 Otisville N/A 36 36 100 SW1 N/A Warwick N/A 34 34 100 N7 N/A WCI 28 Suffern N/A 37 36 93 NW5 N/A WCI 34 Poughkeepsie CLOUDY 36 33 89 N3 29.89S Albany LGT SNOW 35 31 85 NW5 29.92S FOG WCI 31 $$ NJZ001-105-106-008-010-013-015-019>022-104-201600- New Jersey CITY SKY/WX TMP DP RH WIND PRES REMARKS Newark/Liberty CLOUDY 43 38 82 NW8 29.88S Teterboro CLOUDY 42 38 85 N7 29.88S FOG Caldwell CLOUDY 40 37 89 CALM 29.89S Somerville CLOUDY 42 36 79 MISG 29.89R Linden NOT AVBL Perth Amboy N/A 43 N/A N/A NW7 N/A Sussex CLOUDY 37 37 100 CALM 29.88S Andover N/A 37 34 89 CALM 29.89S Trenton CLOUDY 44 39 82 NW9 29.90R Millville CLOUDY 47 43 86 NW10 29.92R FOG Atlantic City CLOUDY 49 47 93 W10 29.91 FOG Wrightstown PTSUNNY 45 42 89 NW8 29.87 Toms River CLOUDY 45 44 97 W9 29.90R FOG Belmar LGT RAIN 44 42 93 W7 29.89R $$ PAZ047>061-062-071-201600- Eastern Pennsylvania CITY SKY/WX TMP DP RH WIND PRES REMARKS Philadelphia CLOUDY 46 39 76 NW9 29.92R Allentown CLOUDY 44 36 73 NW10 29.91R Scranton CLOUDY 36 34 92 W3 29.91S $$ CTZ002-004>006-009-010-012-RIZ004-006-007-MAZ004-011-015-201600- Southern New England In CT CITY SKY/WX TMP DP RH WIND PRES REMARKS Bradley Intl LGT RAIN 35 34 96 N7 29.89S WCI 29 Hartford LGT RAIN 37 35 92 N8 29.88F WCI 31 Danbury CLOUDY 37 37 100 N3 29.88S FOG Wtrbury/Oxford CLOUDY 35 34 96 N8 29.86R WCI 29 Norwalk Harbor N/A 37 N/A N/A NW7 N/A WCI 32 Bridgeport LGT RAIN 40 36 86 N9 29.87R WCI 34 Meriden LGT RAIN 37 35 92 N8 29.88R WCI 31 New Haven CLOUDY 40 37 89 N14 29.86S WCI 32 Chester NOT AVBL Groton LGT RAIN 40 39 97 N9 29.84S FOG WCI 34 Willimantic LGT RAIN 37 37 100 N6 29.87F FOG WCI 32 In RI CITY SKY/WX TMP DP RH WIND PRES REMARKS Providence LGT RAIN 38 37 97 N9 29.86S FOG WCI 31 Block Island LGT RAIN N/A N/A N/A N10 29.83S Westerly LGT RAIN 42 42 100 VRB6 29.85R FOG In MA CITY SKY/WX TMP DP RH WIND PRES REMARKS Boston RAIN 41 38 89 N13 29.89R FOG Worcester LGT SNOW 31 31 100 NE12 29.85F FOG WCI 22 Westfield LGT SNOW 33 32 96 N7 29.88F FOG WCI 27 Provincetown CLOUDY 46 46 100 E12 29.84F FOG Nantucket FAIR 52 50 93 S8 29.83S $$ ANZ330-335-338-340-345-350-353-355-201600- Coastal Marine Observations STATION/POSITION TIME SKY/WX TEMP WIND PRES VSBY WAVE AIR SEA DIR/SP/G HT/PER (UTC) (F) (DEG/KT/KT) (MB) (MI) (FT/S) NY Harb Entrance 1450 46 330/ 10/ 12 1011.4 2/10 20 S Fire Island 1450 51 54 270/ 14/ 16 1010.7 3/10 Great South Bay 1400 45 44 350/ 6/ 6 N/A 23 SSW Montauk P 1450 54 53 220/ 12/ 14 1010.0 3/10 15 E Barnegat Li NOT AVBL Hudson Canyon 1450 54 280/ 14/ 17 1010.9 3/10 Kings Point 1430 42 50 20/ 11/ 12 1012.5 Execution Rocks 1400 49 330/ 8/ 10 N/A Western LI Sound 1350 42 350/ 10/ 12 N/A 1/ 4 Central LI Sound 1415 42 53 10/ 12/ 14 N/A 1/ 3 Robbins Reef 1430 42 350/ 11/ 14 1011.9 $$ >>>>>>>>>>>>>>>>>>>>>>>>>>>> KEY <<<<<<<<<<<<<<<<<<<<<<<<<<< > < > SKY/WX - Sky Condition/Present Weather < > TMP - Temperature in Fahrenheit < > DP - Dew Point in Fahrenheit < > RH - Relative Humidity in Percent < > WIND - Direction (from) and Speed in MPH < > PRES - Mean Sea Level Pressure (inches of Hg) < > WCI - Wind Chill Index < > VSB - Visibility in Miles < > HX - Heat Index < > TC - Temperature in Celsius < > VRB - Variable Wind Direction < > < >>>>>>>>>>>>>>>>>>>>>>>>>>>> KEY <<<<<<<<<<<<<<<<<<<<<<<<<<< ASUS41 KOKX 201514 RWROKX Regional Weather Roundup National Weather Service New York NY 1000 AM EST TUE NOV 20 2018 Note: "FAIR" indicates few or no clouds below 12,000 feet with no significant weather and/or obstructions to visibility. NYZ071-072-176-178-NJZ106-104-201600- New York City Metro Area CITY SKY/WX TMP DP RH WIND PRES REMARKS Central Park CLOUDY 41 38 89 MISG 29.90S FOG Bronx Lehman C N/A 39 37 93 N5 N/A LaGuardia Arpt CLOUDY 42 38 85 NW9 29.87S FOG Queens College N/A 43 39 87 NW5 N/A Kennedy Intl CLOUDY 44 42 93 NW9 29.88S Breezy Point N/A 43 N/A N/A NW8G15 N/A Brooklyn Coll N/A 43 39 87 W9 N/A Staten Island N/A 43 39 87 NW6 N/A Newark/Liberty CLOUDY 43 38 82 NW8 29.88S Teterboro CLOUDY 42 38 85 N7 29.88S FOG $$ NYZ177-179-078>081-201600- Long Island New York CITY SKY/WX TMP DP RH WIND PRES REMARKS Jones Beach N/A 43 N/A N/A N10 N/A Wantagh N/A 43 41 93 NW8 N/A Hempstead N/A 43 39 87 N2 29.89S Matinecock Pt N/A 43 N/A N/A N9 N/A Farmingdale CLOUDY 43 41 93 N8 29.86S FOG MacArthur/ISP CLOUDY 43 42 97 N9 29.85R FOG Stony Brook N/A 41 39 93 N7 N/A Shirley LGT RAIN 44 41 89 N9 29.85S FOG Mt Sinai Harb N/A N/A N/A N/A N9 N/A Westhampton CLOUDY 45 42 89 N10 29.85S East Hampton LGT RAIN 44 43 97 N9 29.83S Southold N/A 43 41 93 N9 N/A Montauk N/A 46 46 100 N8 29.85R $$ NYZ052-065-067-201600- Hudson Valley CITY SKY/WX TMP DP RH WIND PRES REMARKS White Plains CLOUDY 39 37 92 N7 29.85S FOG WCI 34 Larchmont Harb N/A 39 N/A N/A NW6 N/A WCI 35 Croton On Huds N/A 39 N/A N/A CALM N/A Somers N/A 37 36 93 N5 N/A WCI 34 Brewster N/A 36 36 100 N5 N/A WCI 32 Newburgh CLOUDY 36 36 100 CALM 29.89S FOG Montgomery CLOUDY 36 34 92 N5 29.89R WCI 32 Otisville N/A 36 36 100 S1 N/A Warwick N/A 34 34 100 N3 N/A Suffern N/A 37 36 93 NW6 N/A WCI 33 Poughkeepsie CLOUDY 36 33 89 N3 29.89S Albany LGT SNOW 35 31 85 NW5 29.92S FOG WCI 31 $$ NJZ001-105-106-008-010-013-015-019>022-104-201600- New Jersey CITY SKY/WX TMP DP RH WIND PRES REMARKS Newark/Liberty CLOUDY 43 38 82 NW8 29.88S Teterboro CLOUDY 42 38 85 N7 29.88S FOG Caldwell CLOUDY 40 37 89 CALM 29.89S Somerville CLOUDY 42 36 79 MISG 29.89R Linden NOT AVBL Perth Amboy N/A 43 N/A N/A NW7 N/A Sussex CLOUDY 38 37 97 CALM 29.89R Andover N/A 37 34 89 CALM 29.89S Trenton CLOUDY 44 39 82 NW9 29.90R Millville CLOUDY 47 43 86 NW10 29.92R FOG Atlantic City CLOUDY 49 47 93 W10 29.91 FOG Wrightstown PTSUNNY 45 41 87 NW9 29.87 Toms River CLOUDY 45 44 97 W9 29.90R FOG Belmar LGT RAIN 44 42 93 W7 29.89R $$ PAZ047>061-062-071-201600- Eastern Pennsylvania CITY SKY/WX TMP DP RH WIND PRES REMARKS Philadelphia CLOUDY 46 39 76 NW9 29.92R Allentown CLOUDY 44 36 73 NW10 29.91R Scranton CLOUDY 36 34 92 W3 29.91S $$ CTZ002-004>006-009-010-012-RIZ004-006-007-MAZ004-011-015-201600- Southern New England In CT CITY SKY/WX TMP DP RH WIND PRES REMARKS Bradley Intl LGT RAIN 35 34 96 N7 29.89S WCI 29 Hartford LGT RAIN 37 35 92 N8 29.88F WCI 31 Danbury CLOUDY 37 37 100 N3 29.88S FOG Wtrbury/Oxford CLOUDY 35 34 96 N8 29.86R WCI 29 Norwalk Harbor N/A 37 N/A N/A NW7 N/A WCI 32 Bridgeport LGT RAIN 40 36 86 N9 29.87R WCI 34 Meriden LGT RAIN 37 35 92 N8 29.88R WCI 31 New Haven CLOUDY 40 37 89 N14 29.86S WCI 32 Chester NOT AVBL Groton LGT RAIN 40 39 97 N9 29.84S FOG WCI 34 Willimantic LGT RAIN 37 37 100 N6 29.87F FOG WCI 32 In RI CITY SKY/WX TMP DP RH WIND PRES REMARKS Providence LGT RAIN 38 37 97 N9 29.86S FOG WCI 31 Block Island LGT RAIN N/A N/A N/A N10 29.83S Westerly LGT RAIN 42 42 100 VRB6 29.85R FOG In MA CITY SKY/WX TMP DP RH WIND PRES REMARKS Boston RAIN 41 38 89 N13 29.89 FOG Worcester LGT SNOW 31 31 100 NE12 29.85F FOG WCI 22 Westfield LGT SNOW 33 32 96 N7 29.88F FOG WCI 27 Provincetown CLOUDY 46 46 100 E12 29.84F FOG Nantucket FAIR 52 50 93 S8 29.83S $$ ANZ330-335-338-340-345-350-353-355-201600- Coastal Marine Observations STATION/POSITION TIME SKY/WX TEMP WIND PRES VSBY WAVE AIR SEA DIR/SP/G HT/PER (UTC) (F) (DEG/KT/KT) (MB) (MI) (FT/S) NY Harb Entrance 1450 46 330/ 10/ 12 1011.4 2/10 20 S Fire Island 1450 51 54 270/ 14/ 16 1010.7 3/10 Great South Bay 1400 45 44 350/ 6/ 6 N/A 23 SSW Montauk P 1450 54 53 220/ 12/ 14 1010.0 3/10 15 E Barnegat Li NOT AVBL Hudson Canyon 1450 54 280/ 14/ 17 1010.9 3/10 Kings Point 1448 41 50 30/ 10/ 12 1012.3 Execution Rocks 1400 49 330/ 8/ 10 N/A Western LI Sound 1430 42 340/ 10/ 12 N/A 1/ 4 Central LI Sound 1430 42 53 20/ 12/ 16 N/A 1/ 3 Robbins Reef 1448 42 320/ 8/ 11 1012.4 $$ >>>>>>>>>>>>>>>>>>>>>>>>>>>> KEY <<<<<<<<<<<<<<<<<<<<<<<<<<< > < > SKY/WX - Sky Condition/Present Weather < > TMP - Temperature in Fahrenheit < > DP - Dew Point in Fahrenheit < > RH - Relative Humidity in Percent < > WIND - Direction (from) and Speed in MPH < > PRES - Mean Sea Level Pressure (inches of Hg) < > WCI - Wind Chill Index < > VSB - Visibility in Miles < > HX - Heat Index < > TC - Temperature in Celsius < > VRB - Variable Wind Direction < > < >>>>>>>>>>>>>>>>>>>>>>>>>>>> KEY <<<<<<<<<<<<<<<<<<<<<<<<<<<
Office: BUF ASUS61 KBUF 201218 RTPBUF MAX/MIN TEMPERATURE AND PRECIPITATION TABLE FOR WESTERN NY AND THE EASTERN LAKE ONTARIO REGION NATIONAL WEATHER SERVICE BUFFALO, NY 718 AM EST Tue Nov 20 2018 Values represent: High temperature yesterday Low temperature over the last 12 hours Precipitation over the last 24 hours .BR BUF 1120 ES DH00/TAIRZX/DH07/TAIRZP/PPDRZZ/SFDRZZ/SDIRZZ : : Official Climate Stations : Max Min 24 HR Snow Snow : Location Temp Temp Precip Fall Depth BUF :Buffalo Airport : 40 / 31 / 0.01 / T / T ROC :Rochester Airport : 39 / 30 / 0.00 / 0.0 / 1 ART :Watertown Airport : 41 / 28 / 0.00 / / : : Unofficial Supplemental Sites : IAG :Niagara Falls Airport : 40 / 29 / 0.04 / 0.4 / T DKK :Dunkirk Airport : 40 / 31 / 0.01 / / ELZ :Wellsville Airport : 42 / 27 / 0.09 / / DSV :Dansville Airport : 41 / 30 / 0.00 / / FZY :Oswego Airport : 40 / 27 / 0.00 / / GTB :Fort Drum : 40 / 27 / 0.00 / / .END These data are preliminary and have not undergone final quality control by the National Centers for Environmental Information (formerly National Climatic Data Center - NCDC). Therefore... these data are subject to revision. Final and certified climate data can be accessed at www.ncdc.noaa.gov. $$
Office: BOX ASUS41 KBOX 201510 RWRBOX REGIONAL WEATHER ROUNDUP NATIONAL WEATHER SERVICE BOSTON/NORTON MA 1000 AM EST TUE NOV 20 2018 NOTE: "FAIR" INDICATES FEW OR NO CLOUDS BELOW 12,000 FEET WITH NO SIGNIFICANT WEATHER AND/OR OBSTRUCTIONS TO VISIBILITY. MAZALL-201600- EASTERN MASSACHUSETTS CITY SKY/WX TMP DP RH WIND PRES REMARKS BOSTON RAIN 41 38 89 N13 29.89R FOG BEVERLY LGT RAIN 39 36 89 NE9 29.88S FOG LAWRENCE LGT SNOW 35 31 85 N7 29.92F FOG WCI 29 BEDFORD LGT SNOW 34 32 92 N6 29.88F FOG WCI 29 BLUE HILL N/A 37 37 100 NE10G22 29.83F WCI 30 NORWOOD LGT RAIN 40 37 89 N7 29.87F FOG MARSHFIELD LGT RAIN 46 45 93 NE10 29.85S VSB 3/4 PLYMOUTH LGT RAIN 45 44 97 NE8 29.83F FOG TAUNTON RAIN 42 41 96 N8 29.84S FOG NEW BEDFORD LGT RAIN 44 44 100 CALM 29.82F FOG $$ MAZALL-201600- CAPE COD AND THE ISLANDS CITY SKY/WX TMP DP RH WIND PRES REMARKS FALMOUTH NOT AVBL HYANNIS CLOUDY 51 49 92 SE6 29.81F CHATHAM CLOUDY 52 49 89 VRB6 29.84S PROVINCETOWN CLOUDY 46 46 100 E12 29.84F FOG NANTUCKET FAIR 52 50 93 S8 29.83S MARTHAS VNYRD CLOUDY 52 51 97 CALM 29.82F $$ MAZALL-201600- CENTRAL AND WESTERN MASSACHUSETTS CITY SKY/WX TMP DP RH WIND PRES REMARKS WORCESTER LGT SNOW 31 31 100 NE12 29.85F FOG WCI 22 FITCHBURG LGT SNOW 33 31 92 N5 29.91S FOG WCI 29 ORANGE LGT SNOW 34 32 92 NW5 29.89S FOG WCI 30 SPRINGFIELD LGT SNOW 33 32 95 N6 29.88S FOG WCI 28 WESTFIELD LGT SNOW 33 32 96 N7 29.88F FOG WCI 27 NORTH ADAMS LGT SNOW 33 33 100 CALM 29.88F FOG PITTSFIELD CLOUDY 34 31 88 N3 29.84F FOG $$ RIZALL-201600- RHODE ISLAND CITY SKY/WX TMP DP RH WIND PRES REMARKS PROVIDENCE LGT RAIN 38 37 97 N9 29.86S FOG WCI 31 NEWPORT LGT RAIN 41 41 100 N9 29.83F FOG BLOCK ISLAND LGT RAIN N/A N/A N/A N10 29.83S SMITHFIELD LGT RAIN 36 34 93 N10 29.86S FOG WCI 28 WESTERLY LGT RAIN 42 42 100 VRB6 29.85R FOG $$ CTZALL-201600- CONNECTICUT CITY SKY/WX TMP DP RH WIND PRES REMARKS BRADLEY INTL LGT RAIN 35 34 96 N7 29.89S WCI 29 HARTFORD LGT RAIN 37 35 92 N8 29.88F WCI 31 BRIDGEPORT LGT RAIN 40 36 86 N9 29.87R DANBURY CLOUDY 37 37 100 N3 29.88S FOG GROTON LGT RAIN 40 39 97 N9 29.84S FOG NEW HAVEN CLOUDY 40 37 89 N14 29.86S CHESTER NOT AVBL MERIDEN LGT RAIN 37 35 92 N8 29.88R WCI 31 WILLIMANTIC LGT RAIN 37 37 100 N6 29.87F FOG OXFORD CLOUDY 35 34 96 N8 29.86R WCI 29 $$ MEZ002-015-021-024-NHZ003-005-008-011-012-014-VTZ005-008-201600- NORTHERN NEW ENGLAND CITY SKY/WX TMP DP RH WIND PRES REMARKS PORTLAND ME LGT SNOW 33 31 92 NE8 29.96R VSB 3/4 WCI 26 BANGOR ME CLOUDY 30 26 85 N9 29.98S WCI 22 CONCORD NH LGT SNOW 33 32 96 N3 29.92S VSB 3/4 MANCHESTER NH SNOW 34 32 92 N5 29.90F VSB 1/2 WCI 30 NASHUA NH LGT SNOW 33 33 100 NW5 29.92F FOG WCI 29 PORTSMOUTH NH LGT SNOW 33 32 97 N7 29.91S VSB 5/8 WCI 27 JAFFREY NH LGT SNOW 33 33 100 VRB3 29.87S VSB 3/4 KEENE NH LGT SNOW 33 32 96 NE3 29.90S FOG BURLINGTON VT LGT SNOW 29 26 89 N6 29.93S FOG WCI 23 MT. WASHINGTON SNOW 19 19 100 SW12 N/A VSB 1/8 WCI 7 $$ NYZ052-076-201600- EASTERN NEW YORK CITY SKY/WX TMP DP RH WIND PRES REMARKS ALBANY LGT SNOW 35 31 85 NW5 29.92S FOG WCI 31 NEW YORK CITY CLOUDY 42 38 85 NW9 29.87S FOG $$ ANZALL-201600- MARINE OBSERVATIONS STATION/POSITION TIME TEMP WIND PRES VSBY WAVE AIR SEA DIR/SP/G HT/PER (UTC) (F) (DEG/KT/KT) (MB) (MI) (FT/S) BOSTON BUOY 1450 44 51 40/ 19/ 23 1010.4F 3/ 4 BUZZARDS BAY 1400 46 20/ 10/ 10 1010.6F NANTUCKET SOUND 1450 49 48 140/ 10/ 12 1009.6F 1/ 6 MASS BAY-STELLWA 1404 42 49 70/ 21/ 25 1010.1F 1 7/8 4/ 4 ISLE OF SHOALS 1400 38 50/ 24/ 26 1011.5F S OF BLOCK IS 1443 56 N/A 3/ 9 $$ ......................KEY......................... SKY/WX - SKY CONDITION/PRESENT WEATHER TMP - TEMPERATURE IN FAHRENHEIT DWPT - DEWPOINT IN FAHRENHEIT RH - RELATIVE HUMIDITY IN PERCENT WIND - DIRECTION AND SPEED IN MPH PRES - MEAN SEA LEVEL PRESSURE IN INCHES OF HG WCI - WIND CHILL INDEX VSB - VISIBILITY IN MILES HX - HEAT INDEX TC - TEMPERATURE IN CELSIUS VRB - VARIABLE WIND DIRECTION N/A - NOT AVAILABLE
Office: GYX ASUS41 KGYX 201505 RWRGYX WEATHER ROUNDUP FOR MAINE AND NEW HAMPSHIRE NATIONAL WEATHER SERVICE GRAY ME 1000 AM EST TUE NOV 20 2018 MEZ002-005-006-010-012-015-018-020-021-024-026-027-029-201600- MAINE CITY SKY/WX TMP DP RH WIND PRES REMARKS PORTLAND LGT SNOW 33 31 92 NE8 29.96R VSB 3/4 SANFORD LGT SNOW 32 31 96 NE9 29.93F VSB 3/4 BAR HARBOR CLOUDY 32 28 85 N10 29.96F WISCASSET LGT SNOW 32 31 96 CALM 29.97S FOG ROCKLAND LGT SNOW 33 31 92 NE6 29.95F VSB 1 FRYEBURG LGT SNOW 32 30 92 N5 29.95F FOG LEWISTONAUBURN MIX PCPN 32 30 92 N9 29.95F FOG AUGUSTA LGT SNOW 30 27 88 N7 29.96F FOG WATERVILLE LGT SNOW 30 26 85 MISG 29.95R FOG BANGOR CLOUDY 30 26 85 N9 29.98S GREENVILLE N/A 27 22 81 CALM 29.89S MILLINOCKET CLOUDY 24 21 88 NE5 30.00S HOULTON FAIR 23 20 88 N9 29.97F PRESQUE ISLE FAIR 24 18 77 N8 30.01F FRENCHVILLE PTSUNNY 20 12 71 N7 29.97F CARIBOU FAIR 21 15 78 N9 29.98F $$ NHZ002-005-008-009-011-012-014-201600- NEW HAMPSHIRE CITY SKY/WX TMP DP RH WIND PRES REMARKS PORTSMOUTH LGT SNOW 33 32 97 N7 29.91S VSB 5/8 ROCHESTER SNOW 32 32 100 N7 29.92F VSB 1/2 NASHUA LGT SNOW 33 33 100 NW5 29.92F FOG MANCHESTER SNOW 34 32 92 N5 29.90F VSB 1/2 CONCORD LGT SNOW 33 32 96 N3 29.92S VSB 3/4 LACONIA LGT SNOW 32 31 96 NE8 29.91F VSB 1 BERLIN SNOW 27 25 92 CALM 29.90F VSB 1/2 WHITEFIELD CLOUDY 32 26 78 E8 29.88F JAFFREY LGT SNOW 33 33 100 VRB3 29.88R VSB 1 KEENE LGT SNOW 33 32 96 NE3 29.90S FOG LEBANON LGT SNOW 34 30 85 NE5 29.90S VSB 3/4 MT WASHINGTON SNOW 19 19 100 SW12 N/A VSB 1/8 WCI 7 $$ VTZ005-007-008-201600- VERMONT CITY SKY/WX TMP DP RH WIND PRES REMARKS ST JOHNSBURY N/A 28 25 88 MISG 29.90F MONTPELIER CLOUDY 30 28 92 CALM 29.91F BURLINGTON LGT SNOW 29 26 89 N6 29.93S FOG $$ MAZ007-012-024-CTZ003-RIZ002-NYZ038-NYZ072-201600- SOUTHERN NEW ENGLAND AND NY CITY SKY/WX TMP DP RH WIND PRES REMARKS BOSTON RAIN 41 38 89 N13 29.89R FOG WORCESTER LGT SNOW 31 31 100 NE12 29.85F FOG NANTUCKET FAIR 52 50 93 S8 29.83S PROVIDENCE LGT RAIN 38 37 97 N9 29.86S FOG HARTFORD LGT RAIN 35 34 96 N7 29.89S ALBANY LGT SNOW 35 31 85 NW5 29.92S FOG NEW YORK CITY CLOUDY 42 38 85 NW9 29.87S FOG $$ ANZ081-ANZ082-ANZ150-NHZ014-MEZ023>029-201600- COASTAL MARINE OBSERVATIONS STATION/POSITION TIME TEMP WIND PRES WAVE AIR SEA DIR/SP/G HT/PER (UTC) (F) (DEG/KT/KT) (MB) (FT/S) MOUNT DESERT ROC 1500 34 10/ 17/ 19 1013.9R MATINICUS ROCK 1400 34 40/ 16/ 19 1013.4F ISLE OF SHOALS 1400 38 50/ 24/ 26 1011.5F $$ .............KEY.............. WCI - WIND CHILL TC - TEMPERATURE IN CELSIUS VSB - VISIBILITY IN MILES HX - HEAT INDEX FAIR- INDICATES FEW OR NO CLOUDS BELOW 12,000 FT, WITH NO SIGNIFICANT WEATHER AND/OR OBSTRUCTIONS TO VISIBILITY. ASUS41 KGYX 201510 RWRGYX WEATHER ROUNDUP FOR MAINE AND NEW HAMPSHIRE NATIONAL WEATHER SERVICE GRAY ME 1000 AM EST TUE NOV 20 2018 MEZ002-005-006-010-012-015-018-020-021-024-026-027-029-201600- MAINE CITY SKY/WX TMP DP RH WIND PRES REMARKS PORTLAND LGT SNOW 33 31 92 NE8 29.96R VSB 3/4 SANFORD LGT SNOW 32 31 96 NE9 29.93F VSB 3/4 BAR HARBOR CLOUDY 32 28 85 N10 29.96F WISCASSET LGT SNOW 32 31 96 CALM 29.97S FOG ROCKLAND LGT SNOW 33 31 92 NE6 29.95F VSB 1 FRYEBURG LGT SNOW 31 29 92 NE7 29.94F FOG LEWISTONAUBURN MIX PCPN 32 30 92 N9 29.95F FOG AUGUSTA LGT SNOW 30 27 88 N7 29.96F FOG WATERVILLE LGT SNOW 30 26 85 MISG 29.95R FOG BANGOR CLOUDY 30 26 85 N9 29.98S GREENVILLE N/A 27 22 81 CALM 29.89S MILLINOCKET CLOUDY 24 21 88 NE5 30.00S HOULTON FAIR 23 20 88 N9 29.97F PRESQUE ISLE FAIR 24 18 77 N8 30.01F FRENCHVILLE PTSUNNY 20 12 71 N7 29.97F CARIBOU FAIR 21 15 78 N9 29.98F $$ NHZ002-005-008-009-011-012-014-201600- NEW HAMPSHIRE CITY SKY/WX TMP DP RH WIND PRES REMARKS PORTSMOUTH LGT SNOW 33 32 97 N7 29.91S VSB 5/8 ROCHESTER SNOW 32 32 100 N7 29.92F VSB 1/2 NASHUA LGT SNOW 33 33 100 NW5 29.92F FOG MANCHESTER SNOW 34 32 92 N5 29.90F VSB 1/2 CONCORD LGT SNOW 33 32 96 N3 29.92S VSB 3/4 LACONIA LGT SNOW 32 31 96 NE8 29.91F VSB 1 BERLIN SNOW 27 25 92 CALM 29.90F VSB 1/2 WHITEFIELD CLOUDY 32 26 78 E8 29.88F JAFFREY LGT SNOW 33 33 100 VRB3 29.87S VSB 3/4 KEENE LGT SNOW 33 32 96 NE3 29.90S FOG LEBANON LGT SNOW 34 30 85 NE5 29.90S VSB 3/4 MT WASHINGTON SNOW 19 19 100 SW12 N/A VSB 1/8 WCI 7 $$ VTZ005-007-008-201600- VERMONT CITY SKY/WX TMP DP RH WIND PRES REMARKS ST JOHNSBURY N/A 28 25 88 MISG 29.90F MONTPELIER CLOUDY 30 28 92 CALM 29.91F BURLINGTON LGT SNOW 29 26 89 N6 29.93S FOG $$ MAZ007-012-024-CTZ003-RIZ002-NYZ038-NYZ072-201600- SOUTHERN NEW ENGLAND AND NY CITY SKY/WX TMP DP RH WIND PRES REMARKS BOSTON RAIN 41 38 89 N13 29.89R FOG WORCESTER LGT SNOW 31 31 100 NE12 29.85F FOG NANTUCKET FAIR 52 50 93 S8 29.83S PROVIDENCE LGT RAIN 38 37 97 N9 29.86S FOG HARTFORD LGT RAIN 35 34 96 N7 29.89S ALBANY LGT SNOW 35 31 85 NW5 29.92S FOG NEW YORK CITY CLOUDY 42 38 85 NW9 29.87S FOG $$ ANZ081-ANZ082-ANZ150-NHZ014-MEZ023>029-201600- COASTAL MARINE OBSERVATIONS STATION/POSITION TIME TEMP WIND PRES WAVE AIR SEA DIR/SP/G HT/PER (UTC) (F) (DEG/KT/KT) (MB) (FT/S) MOUNT DESERT ROC 1500 34 10/ 17/ 19 1013.9R MATINICUS ROCK 1400 34 40/ 16/ 19 1013.4F ISLE OF SHOALS 1400 38 50/ 24/ 26 1011.5F $$ .............KEY.............. WCI - WIND CHILL TC - TEMPERATURE IN CELSIUS VSB - VISIBILITY IN MILES HX - HEAT INDEX FAIR- INDICATES FEW OR NO CLOUDS BELOW 12,000 FT, WITH NO SIGNIFICANT WEATHER AND/OR OBSTRUCTIONS TO VISIBILITY.
Office: PHI ASUS41 KPHI 201512 RWRPHI REGIONAL WEATHER ROUNDUP NATIONAL WEATHER SERVICE MOUNT HOLLY NJ 1000 AM EST TUE NOV 20 2018 NOTE: "FAIR" INDICATES FEW OR NO CLOUDS BELOW 12,000 FEET WITH NO SIGNIFICANT WEATHER AND/OR OBSTRUCTIONS TO VISIBILITY. * = STATION DOES NOT REPORT PRECIPITATION (E.G. RAIN, SNOW, ETC.) OR FOG. NJZ015>026-201600- SOUTHERN NEW JERSEY CITY SKY/WX TMP DP RH WIND PRES REMARKS POMONA CLOUDY 49 47 93 W10 29.91R FOG WILDWOOD* CLOUDY 52 47 83 NW9G18 29.92R HAZE MILLVILLE CLOUDY 47 43 86 NW10 29.92R FOG WRIGHTSTOWN PTSUNNY 45 41 87 NW9 29.87S MOUNT HOLLY CLOUDY 46 40 79 W6 29.91S TRENTON CLOUDY 44 39 82 NW9 29.90R $$ NJZ001>014-201600- NORTHERN NEW JERSEY CITY SKY/WX TMP DP RH WIND PRES REMARKS SUSSEX CLOUDY 38 37 97 CALM 29.89R ANDOVER* N/A 37 34 89 CALM 29.89S MORRISTOWN PTSUNNY 41 37 87 NW5 29.90R NEWARK CLOUDY 43 38 82 NW8 29.88S TETERBORO CLOUDY 42 38 85 N7 29.88S FOG CALDWELL CLOUDY 40 37 89 CALM 29.89S SOMERVILLE CLOUDY 42 36 79 MISG 29.89R ALLAIRE* LGT RAIN 44 42 93 W7 29.89R TOMS RIVER* CLOUDY 45 44 97 W9 29.90R FOG $$ PAZ043-044-047-054-055-060>062-066>071-201600- EASTERN PENNSYLVANIA CITY SKY/WX TMP DP RH WIND PRES REMARKS PHILADELPHIA CLOUDY 46 39 76 NW9 29.92R NORTH PHILA CLOUDY 47 39 74 NW9 29.92S BLUE BELL* CLOUDY 43 37 81 NW3 29.92R DOYLESTOWN CLOUDY 43 37 79 VRB6 29.90S QUAKERTOWN* CLOUDY 43 37 81 NW6 29.91R POTTSTOWN CLOUDY 43 36 76 NW8 29.93R LANCASTER CLOUDY 46 38 73 NW14 29.94R COATESVILLE CLOUDY 43 39 87 NW13 29.92S READING CLOUDY 44 38 79 NW12 29.93R ALLENTOWN CLOUDY 44 36 73 NW10 29.91R MOUNT POCONO NOT AVBL HAZLETON CLOUDY 36 32 87 W6 29.92R FOG WCI 31 LEHIGHTON CLOUDY 41 36 81 W6 29.92S WILKES BARRE CLOUDY 36 34 92 W3 29.91S $$ DEZALL-MDZ008-012-015-019-020-201600- DELAWARE AND EASTERN MARYLAND CITY SKY/WX TMP DP RH WIND PRES REMARKS WILMINGTON CLOUDY 46 40 79 NW9 29.94R DOVER PTSUNNY 49 43 80 NW13 29.92R GEORGETOWN PTSUNNY 55 44 66 N8 29.93R EASTON MOSUNNY 52 45 76 NW6 29.98R ABERDEEN PTSUNNY 46 41 81 NW7 29.95R PATUXENT PTSUNNY 51 45 79 NW9 29.95 OCEAN CITY PTSUNNY 55 51 86 NW12 29.91S WALLOPS ISLAND PTSUNNY 56 51 84 W7 29.94R SALISBURY FAIR 55 50 83 NW7 29.92R $$ PAZ001-021-NYZ056-072-MDZ011-DCZ001-201600- OTHER NEARBY LOCATIONS CITY SKY/WX TMP DP RH WIND PRES REMARKS HARRISBURG CLOUDY 44 36 73 NW12 29.95R STATE COLLEGE CLOUDY 36 34 93 W8 29.95R WCI 29 WILLIAMSPORT PTSUNNY 39 35 86 W7 29.94R WCI 34 BINGHAMTON LGT SNOW 32 31 96 W6 29.86S FOG WCI 26 NEW YORK CITY CLOUDY 41 38 89 MISG 29.90S FOG BALTIMORE PTSUNNY 49 37 63 NW17G25 29.94R WASHINGTON DC CLOUDY 51 39 63 N10 29.97R $$